Date String (YYYY-MM-DD hh:mm:ss) UTC,Instrument flags,absolute air pressure of the measurement (hPa),sample flow rate (lpm),inlet stack bypass flow (lpm),air temperature of the measurement (°C),ambient temperature measured by the external sensor (°C),aerosol sample conditioner tube jacket temperature (°C),OPC LED temperature (°C),internal box temperature (°C),relative humidity of the measurement (%),span deviation,mass concentration of particles derived from Lorenz-Mie calculation of OPC scattering (μg/m³),mass concentration of particles derived from Lorenz-Mie calculation of OPC scattering (μg/m³),mass concentration of particles derived from Lorenz-Mie calculation of OPC scattering (μg/m³)
DateTimeUTC,F1_M11,P_M11,Q1_M11,Q2_M11,T1_M11,T2_M11,T3_M11,T4_M11,T5_M11,U1_M11,ZSPAN_M11,X2_M11,X0_M11,X1_M11
2023-10-26 06:00:00,SystemResetWarning,0823.1,5.00,000.00,029.3,028.0,000.0,037.7,031.0,17.2,0000.1,0009.16,0018.40,0007.34
2023-10-26 06:01:00,SystemResetWarning,0823.0,5.00,000.00,029.3,028.1,000.0,037.7,031.1,17.2,0000.5,0009.35,0018.06,0007.53
2023-10-26 06:02:00,SystemResetWarning,0822.9,5.00,000.00,029.4,028.1,000.0,037.7,031.1,16.9,0000.5,0009.38,0017.90,0007.58
2023-10-26 06:03:00,SystemResetWarning,0823.0,5.00,000.00,029.4,028.1,000.0,037.8,031.1,16.7,0000.3,0009.46,0018.30,0007.67
2023-10-26 06:04:00,SystemResetWarning,0822.9,5.00,000.00,029.4,028.1,000.0,037.8,031.1,16.5,-000.3,0009.54,0018.95,0007.75
2023-10-26 06:05:00,SystemResetWarning,0823.0,5.00,000.00,029.4,028.1,000.0,037.8,031.1,16.4,-000.5,0009.63,0019.59,0007.83
2023-10-26 06:06:00,SystemResetWarning,0822.9,5.00,000.00,029.4,028.1,000.0,037.8,031.1,16.4,-000.6,0009.69,0020.84,0007.88
2023-10-26 06:07:00,SystemResetWarning,0822.8,5.00,000.00,029.4,028.1,000.0,037.8,031.1,16.5,-001.0,0009.70,0021.81,0007.86
2023-10-26 06:08:00,SystemResetWarning,0822.9,5.00,000.00,029.4,028.1,000.0,037.8,031.1,16.5,-001.0,0009.60,0021.72,0007.76
2023-10-26 06:09:00,SystemResetWarning,0822.9,5.00,000.00,029.4,028.1,000.0,037.8,031.1,16.4,-000.0,0009.47,0021.03,0007.58
2023-10-26 06:10:00,SystemResetWarning,0822.9,5.00,000.00,029.4,028.1,000.0,037.8,031.1,16.4,0000.5,0009.33,0021.13,0007.41
2023-10-26 06:11:00,SystemResetWarning,0823.0,5.00,000.00,029.4,028.1,000.0,037.9,031.1,16.5,0000.7,0009.22,0021.04,0007.26
2023-10-26 06:12:00,SystemResetWarning,0823.2,5.00,000.00,029.4,028.1,000.0,037.9,031.1,16.6,0000.8,0009.06,0020.83,0007.16
2023-10-26 06:13:00,SystemResetWarning,0823.2,5.00,000.00,029.4,028.1,000.0,037.9,031.1,16.8,0000.6,0009.09,0021.29,0007.17
2023-10-26 06:14:00,SystemResetWarning,0823.0,5.00,000.00,029.4,028.1,000.0,037.9,031.1,16.9,0000.4,0009.10,0021.78,0007.12
2023-10-26 06:15:00,SystemResetWarning,0823.1,5.00,000.00,029.5,028.1,000.0,037.9,031.1,16.9,0000.4,0009.07,0021.41,0007.10
2023-10-26 06:16:00,SystemResetWarning,0823.0,5.00,000.00,029.4,028.1,000.0,037.9,031.1,16.8,0000.8,0009.01,0021.33,0007.08
2023-10-26 06:17:00,SystemResetWarning,0823.0,5.00,000.00,029.4,028.1,000.0,037.9,031.1,16.7,0000.5,0008.94,0020.34,0007.06
2023-10-26 06:18:00,SystemResetWarning,0822.8,5.00,000.00,029.4,028.1,000.0,037.9,031.1,16.7,0001.0,0008.87,0019.59,0007.04
2023-10-26 06:19:00,SystemResetWarning,0823.2,5.00,000.00,029.4,028.1,000.0,037.9,031.1,16.7,0001.4,0008.77,0019.66,0006.99
2023-10-26 06:20:00,SystemResetWarning,0823.2,5.00,000.00,029.5,028.1,000.0,037.9,031.1,16.7,0001.3,0008.71,0019.89,0006.94
2023-10-26 06:21:00,SystemResetWarning,0823.1,5.00,000.00,029.5,028.1,000.0,037.9,031.1,16.9,0000.4,0008.58,0019.98,0006.90
2023-10-26 06:22:00,SystemResetWarning,0823.2,5.00,000.00,029.5,028.1,000.0,037.9,031.1,17.0,-000.6,0008.50,0019.53,0006.89
2023-10-26 06:23:00,SystemResetWarning,0823.4,5.00,000.00,029.5,028.1,000.0,037.9,031.1,17.0,-001.8,0008.52,0020.21,0006.89
2023-10-26 06:24:00,SystemResetWarning,0823.2,5.00,000.00,029.5,028.1,000.0,037.9,031.1,17.1,-001.8,0008.57,0020.43,0006.88
2023-10-26 06:25:00,SystemResetWarning,0823.2,5.00,000.00,029.5,028.1,000.0,037.9,031.1,17.1,-001.4,0008.57,0019.70,0006.85
2023-10-26 06:26:00,SystemResetWarning,0823.2,5.00,000.00,029.4,028.1,000.0,037.9,031.1,16.9,-000.5,0008.50,0020.01,0006.80
2023-10-26 06:27:00,SystemResetWarning,0823.3,5.00,000.00,029.4,028.1,000.0,037.9,031.1,16.9,-000.4,0008.46,0020.70,0006.73
2023-10-26 06:28:00,SystemResetWarning,0823.2,5.00,000.00,029.4,028.1,000.0,037.9,031.1,16.9,-000.4,0008.37,0020.06,0006.64
2023-10-26 06:29:00,SystemResetWarning,0823.1,5.00,000.00,029.4,028.1,000.0,037.9,031.0,16.8,-000.8,0008.32,0020.35,0006.57
2023-10-26 06:30:00,SystemResetWarning,0823.3,5.00,000.00,029.4,028.1,000.0,037.9,031.0,16.8,-001.2,0008.34,0020.37,0006.52
2023-10-26 06:31:00,SystemResetWarning,0822.7,5.00,000.00,029.5,028.1,000.0,037.9,031.1,16.8,-001.6,0008.33,0020.59,0006.46
2023-10-26 06:32:00,SystemResetWarning,0822.7,5.00,000.00,029.5,028.1,000.0,037.9,031.1,16.7,-000.9,0008.30,0021.55,0006.42
2023-10-26 06:33:00,SystemResetWarning,0822.8,5.00,000.00,029.5,028.1,000.0,037.9,031.1,16.7,0000.5,0008.33,0021.86,0006.39
2023-10-26 06:34:00,SystemResetWarning,0822.9,5.00,000.00,029.5,028.1,000.0,037.9,031.1,16.7,0001.4,0008.34,0020.95,0006.36
2023-10-26 06:35:00,SystemResetWarning,0823.0,5.00,000.00,029.5,028.2,000.0,037.9,031.1,16.7,0001.8,0008.27,0021.32,0006.34
2023-10-26 06:36:00,SystemResetWarning,0822.6,5.00,000.00,029.5,028.2,000.0,037.9,031.1,16.7,0001.8,0008.23,0023.04,0006.35
2023-10-26 06:37:00,SystemResetWarning,0822.7,5.00,000.00,029.5,028.2,000.0,037.9,031.1,16.9,0001.6,0008.19,0023.12,0006.34
2023-10-26 06:38:00,SystemResetWarning,0822.7,5.00,000.00,029.5,028.2,000.0,037.9,031.1,17.0,0001.9,0008.17,0022.05,0006.32
2023-10-26 06:39:00,SystemResetWarning,0822.8,5.01,000.00,029.5,028.2,000.0,037.9,031.1,16.8,0001.9,0008.19,0022.97,0006.30
2023-10-26 06:40:00,SystemResetWarning,0822.8,5.00,000.00,029.5,028.2,000.0,037.9,031.1,16.9,0001.4,0008.13,0023.38,0006.26
2023-10-26 06:41:00,SystemResetWarning,0822.8,5.00,000.00,029.5,028.2,000.0,038.0,031.1,17.2,0001.2,0008.03,0022.28,0006.21
2023-10-26 06:42:00,SystemResetWarning,0822.7,5.00,000.00,029.5,028.1,000.0,037.9,031.1,17.5,0001.1,0007.92,0021.16,0006.17
2023-10-26 06:43:00,SystemResetWarning,0822.7,5.00,000.00,029.5,028.1,000.0,037.9,031.1,17.5,0001.1,0007.86,0020.36,0006.13
2023-10-26 06:44:00,SystemResetWarning,0822.6,4.99,000.00,029.5,027.3,000.0,037.9,031.0,17.6,0000.8,0007.83,0020.35,0006.10
2023-10-26 06:45:00,SystemResetWarning,0822.6,5.01,000.00,029.4,025.2,000.0,037.9,030.8,17.8,0001.0,0007.78,0020.68,0006.04
2023-10-26 06:46:00,SystemResetWarning,0822.8,5.01,000.00,029.3,024.5,000.0,037.8,030.6,17.6,0000.7,0007.74,0021.00,0005.98
2023-10-26 06:47:00,SystemResetWarning,0822.7,5.00,000.00,029.1,024.6,000.0,037.8,030.3,18.0,-000.2,0007.68,0019.07,0005.94
2023-10-26 06:48:00,SystemResetWarning,0822.8,5.00,000.00,029.0,025.0,000.0,037.7,030.2,18.4,-000.2,0007.64,0018.64,0005.91
2023-10-26 06:49:00,SystemResetWarning,0822.8,5.00,000.00,028.9,025.4,000.0,037.7,030.2,18.6,-001.3,0007.61,0019.00,0005.90
2023-10-26 06:50:00,SystemResetWarning,0822.8,5.00,000.00,028.9,025.7,000.0,037.6,030.3,18.7,-001.1,0007.59,0018.81,0005.91
2023-10-26 06:51:00,SystemResetWarning,0822.8,5.00,000.00,028.8,026.0,000.0,037.6,030.3,18.9,-000.6,0007.63,0018.35,0005.96
2023-10-26 06:52:00,SystemResetWarning,0822.7,5.01,000.00,028.8,026.3,000.0,037.5,030.3,19.1,-000.3,0007.69,0019.05,0006.01
2023-10-26 06:53:00,SystemResetWarning,0822.8,5.00,000.00,028.8,026.5,000.0,037.5,030.3,19.2,-000.7,0007.69,0019.50,0006.03
2023-10-26 06:54:00,SystemResetWarning,0822.8,4.99,000.00,028.8,026.7,000.0,037.4,030.3,19.2,-000.5,0007.76,0019.80,0006.06
2023-10-26 06:55:00,SystemResetWarning,0822.8,5.00,000.00,028.8,026.8,000.0,037.4,030.3,19.1,-000.2,0007.69,0019.64,0006.06
2023-10-26 06:56:00,SystemResetWarning,0822.7,5.00,000.00,028.8,027.0,000.0,037.4,030.4,18.5,-000.2,0007.62,0019.17,0006.08
2023-10-26 06:57:00,SystemResetWarning,0822.8,5.00,000.00,028.8,027.1,000.0,037.4,030.4,18.2,0000.0,0007.62,0018.32,0006.13
2023-10-26 06:58:00,SystemResetWarning,0822.8,5.00,000.00,028.8,027.1,000.0,037.3,030.4,18.3,0000.1,0007.68,0019.73,0006.17
2023-10-26 06:59:00,SystemResetWarning,0822.7,5.00,000.00,028.8,027.2,000.0,037.3,030.4,18.4,0000.2,0007.72,0019.79,0006.20
